Stündliche Wetter Bolshie Ledinki

Heute, 27 November, Freitag

Zeit Temperatur Niederschläge Wind Luftdruck Luftfeuchtigkeit
00:00 -1°C° 0 mm 3 m/S 738 mmHg 89%
01:00 -2°C° 0 mm 4 m/S 738 mmHg 89%
02:00 -1°C° 0 mm 3 m/S 737 mmHg 87%
03:00 -1°C° 0 mm 3 m/S 737 mmHg 88%
04:00 -1°C° 0 mm 3 m/S 737 mmHg 88%
05:00 -1°C° 0 mm 3 m/S 737 mmHg 89%
06:00 -1°C° 0.2 mm 3 m/S 736 mmHg 92%
07:00 -1°C° 0.2 mm 3 m/S 736 mmHg 94%
08:00 -1°C° 0 mm 2 m/S 736 mmHg 97%
09:00 -1°C° 0.5 mm 2 m/S 736 mmHg 97%
10:00 -1°C° 0.5 mm 2 m/S 736 mmHg 97%
11:00 -1°C° 0.5 mm 2 m/S 736 mmHg 97%
12:00 -1°C° 0.7 mm 2 m/S 736 mmHg 98%
13:00 -1°C° 0.7 mm 2 m/S 736 mmHg 98%
14:00 -1°C° 0.7 mm 2 m/S 736 mmHg 98%
15:00 -1°C° 0.5 mm 2 m/S 736 mmHg 98%
16:00 +1°C° 0.5 mm 1 m/S 736 mmHg 98%
17:00 +1°C° 0.5 mm 1 m/S 736 mmHg 98%
18:00 +1°C° 0.2 mm 1 m/S 737 mmHg 98%
19:00 +1°C° 0.2 mm 1 m/S 737 mmHg 98%
20:00 +1°C° 0.2 mm 1 m/S 737 mmHg 98%
21:00 +1°C° 0.3 mm 1 m/S 738 mmHg 98%
22:00 +1°C° 0.3 mm 1 m/S 738 mmHg 98%
23:00 +1°C° 0.3 mm 1 m/S 738 mmHg 98%

Morgen, 28 November, Samstag

Zeit Temperatur Niederschläge Wind Luftdruck Luftfeuchtigkeit
00:00 +1°C° 0.3 mm 1 m/S 739 mmHg 98%
01:00 +1°C° 0.3 mm 1 m/S 739 mmHg 98%
02:00 +1°C° 0.3 mm 1 m/S 740 mmHg 98%
03:00 +1°C° 0.3 mm 1 m/S 740 mmHg 98%
04:00 +1°C° 0.3 mm 1 m/S 741 mmHg 98%
05:00 +1°C° 0.3 mm 1 m/S 741 mmHg 98%
06:00 +1°C° 0.2 mm 1 m/S 742 mmHg 98%
07:00 -1°C° 0.2 mm 2 m/S 743 mmHg 98%
08:00 -1°C° 0.2 mm 2 m/S 743 mmHg 98%
09:00 +1°C° 0.1 mm 1 m/S 744 mmHg 98%
10:00 +2°C° 0.1 mm 1 m/S 744 mmHg 98%
11:00 +2°C° 0.1 mm 1 m/S 745 mmHg 98%
12:00 +2°C° 0.1 mm 1 m/S 745 mmHg 98%
13:00 +2°C° 0.1 mm 1 m/S 746 mmHg 98%
14:00 +1°C° 0.1 mm 2 m/S 746 mmHg 98%
15:00 +1°C° 0 mm 2 m/S 747 mmHg 98%
16:00 -1°C° 0 mm 2 m/S 747 mmHg 98%
17:00 -1°C° 0 mm 2 m/S 747 mmHg 97%
18:00 -1°C° 0 mm 2 m/S 748 mmHg 97%
19:00 -1°C° 0 mm 2 m/S 748 mmHg 97%
20:00 0°C° 0 mm 1 m/S 749 mmHg 97%
21:00 -1°C° 0.1 mm 2 m/S 749 mmHg 97%
22:00 -1°C° 0.1 mm 2 m/S 749 mmHg 97%
23:00 -1°C° 0.1 mm 2 m/S 749 mmHg 97%

übermorgen, 29 November, Sonntag

Zeit Temperatur Niederschläge Wind Luftdruck Luftfeuchtigkeit
00:00 -1°C° 0.1 mm 2 m/S 750 mmHg 97%
01:00 -1°C° 0.1 mm 3 m/S 750 mmHg 97%
02:00 -1°C° 0.1 mm 3 m/S 750 mmHg 97%
03:00 -1°C° 0.1 mm 3 m/S 750 mmHg 96%
04:00 -1°C° 0.1 mm 3 m/S 750 mmHg 95%
05:00 -1°C° 0.1 mm 3 m/S 749 mmHg 94%
06:00 -1°C° 0.2 mm 3 m/S 749 mmHg 95%
07:00 -2°C° 0.2 mm 4 m/S 749 mmHg 96%
08:00 -2°C° 0.2 mm 4 m/S 749 mmHg 97%
09:00 -1°C° 0.4 mm 4 m/S 749 mmHg 97%
10:00 0°C° 0.4 mm 3 m/S 749 mmHg 98%
11:00 +1°C° 0.4 mm 3 m/S 749 mmHg 98%
12:00 0°C° 0.2 mm 4 m/S 749 mmHg 97%
13:00 0°C° 0.2 mm 5 m/S 749 mmHg 97%
14:00 0°C° 0.2 mm 5 m/S 749 mmHg 96%
15:00 0°C° 0.1 mm 5 m/S 749 mmHg 95%
16:00 -1°C° 0.1 mm 5 m/S 749 mmHg 94%
17:00 -1°C° 0.1 mm 5 m/S 749 mmHg 92%
18:00 -1°C° 0.1 mm 5 m/S 749 mmHg 92%
19:00 0°C° 0.1 mm 5 m/S 749 mmHg 92%
20:00 +1°C° 0.1 mm 5 m/S 749 mmHg 92%
21:00 +1°C° 0.1 mm 5 m/S 749 mmHg 91%
22:00 +1°C° 0.1 mm 5 m/S 749 mmHg 91%
23:00 +1°C° 0.1 mm 5 m/S 749 mmHg 91%

30 November, Montag

Zeit Temperatur Niederschläge Wind Luftdruck Luftfeuchtigkeit
00:00 +1°C° 0 mm 5 m/S 749 mmHg 91%
01:00 +1°C° 0 mm 5 m/S 749 mmHg 91%
02:00 +1°C° 0 mm 5 m/S 749 mmHg 92%
03:00 +1°C° 0.1 mm 5 m/S 748 mmHg 92%
04:00 +1°C° 0.1 mm 6 m/S 748 mmHg 93%
05:00 +1°C° 0.1 mm 6 m/S 748 mmHg 94%
06:00 -1°C° 0.3 mm 6 m/S 748 mmHg 95%
07:00 -1°C° 0.3 mm 6 m/S 749 mmHg 95%
08:00 -1°C° 0.3 mm 6 m/S 749 mmHg 95%
09:00 0°C° 0.2 mm 5 m/S 749 mmHg 95%
10:00 +1°C° 0.2 mm 5 m/S 749 mmHg 94%
11:00 +1°C° 0.2 mm 5 m/S 749 mmHg 94%
12:00 +1°C° 0.4 mm 4 m/S 749 mmHg 95%
13:00 0°C° 0.4 mm 4 m/S 749 mmHg 96%
14:00 +1°C° 0.4 mm 3 m/S 749 mmHg 96%
15:00 +1°C° 0.1 mm 3 m/S 749 mmHg 96%
16:00 0°C° 0.1 mm 3 m/S 749 mmHg 95%
17:00 +1°C° 0.1 mm 2 m/S 750 mmHg 94%
18:00 -1°C° 0 mm 2 m/S 750 mmHg 94%
19:00 -1°C° 0 mm 2 m/S 750 mmHg 93%
20:00 -1°C° 0 mm 2 m/S 750 mmHg 92%
21:00 -1°C° 0 mm 2 m/S 750 mmHg 91%
22:00 -1°C° 0 mm 2 m/S 750 mmHg 91%
23:00 -2°C° 0 mm 2 m/S 750 mmHg 90%

1 Dezember, Dienstag

Zeit Temperatur Niederschläge Wind Luftdruck Luftfeuchtigkeit
00:00 -2°C° 0 mm 2 m/S 751 mmHg 88%
01:00 -2°C° 0 mm 2 m/S 751 mmHg 87%
02:00 -2°C° 0 mm 2 m/S 751 mmHg 85%
03:00 -2°C° 0 mm 2 m/S 751 mmHg 85%
04:00 -2°C° 0 mm 2 m/S 751 mmHg 85%
05:00 -2°C° 0 mm 2 m/S 751 mmHg 85%
06:00 -1°C° 0 mm 1 m/S 752 mmHg 86%
07:00 -1°C° 0 mm 1 m/S 752 mmHg 88%
08:00 -1°C° 0 mm 1 m/S 752 mmHg 90%
09:00 -1°C° 0 mm 1 m/S 752 mmHg 86%
10:00 -2°C° 0 mm 2 m/S 752 mmHg 82%
11:00 -2°C° 0 mm 2 m/S 752 mmHg 79%
12:00 0°C° 0 mm 1 m/S 753 mmHg 80%
13:00 0°C° 0 mm 1 m/S 753 mmHg 81%
14:00 0°C° 0 mm 1 m/S 753 mmHg 82%
15:00 0°C° 0 mm 1 m/S 753 mmHg 85%
16:00 -1°C° 0 mm 1 m/S 753 mmHg 87%
17:00 -1°C° 0 mm 1 m/S 753 mmHg 90%
18:00 0°C° 0 mm 1 m/S 753 mmHg 92%
19:00 0°C° 0 mm 1 m/S 754 mmHg 94%
20:00 0°C° 0 mm 1 m/S 754 mmHg 95%
21:00 -2°C° 0.1 mm 2 m/S 754 mmHg 96%
22:00 -1°C° 0.1 mm 2 m/S 754 mmHg 96%
23:00 -1°C° 0.1 mm 2 m/S 754 mmHg 97%

2 Dezember, Mittwoch

Zeit Temperatur Niederschläge Wind Luftdruck Luftfeuchtigkeit
00:00 -2°C° 0.2 mm 2 m/S 754 mmHg 97%
01:00 -2°C° 0.2 mm 2 m/S 754 mmHg 96%
02:00 -2°C° 0.2 mm 2 m/S 755 mmHg 96%
03:00 -2°C° 0.1 mm 2 m/S 755 mmHg 94%
04:00 -2°C° 0.1 mm 2 m/S 754 mmHg 92%
05:00 -3°C° 0.1 mm 2 m/S 754 mmHg 90%
06:00 -3°C° 0 mm 2 m/S 755 mmHg 88%
07:00 -3°C° 0 mm 2 m/S 755 mmHg 87%
08:00 -3°C° 0 mm 2 m/S 755 mmHg 86%
09:00 -4°C° 0 mm 3 m/S 755 mmHg 84%
10:00 -4°C° 0 mm 3 m/S 755 mmHg 82%
11:00 -4°C° 0 mm 3 m/S 755 mmHg 80%
12:00 -4°C° 0 mm 3 m/S 755 mmHg 80%
13:00 -4°C° 0 mm 3 m/S 755 mmHg 80%
14:00 -4°C° 0 mm 3 m/S 755 mmHg 80%
15:00 -4°C° 0 mm 3 m/S 755 mmHg 81%
16:00 -4°C° 0 mm 3 m/S 755 mmHg 82%
17:00 -5°C° 0 mm 3 m/S 755 mmHg 82%
18:00 -5°C° 0 mm 3 m/S 756 mmHg 82%
19:00 -5°C° 0 mm 3 m/S 756 mmHg 82%
20:00 -5°C° 0 mm 3 m/S 756 mmHg 82%
21:00 -5°C° 0 mm 3 m/S 756 mmHg 81%
22:00 -5°C° 0 mm 3 m/S 756 mmHg 80%
23:00 -5°C° 0 mm 3 m/S 756 mmHg 79%
Mehr zeigen

Wir brauchen deine Erlaubnis

Meteoprog und unser Service Anbieter werden persönliche Daten aufbewahren, so wie Cookies, Geräte Bezeichnung oder ähnliche Technologien von deinem Gerät und Prozess, so wie Persönliche Daten Inhalte und Werbungen, genauso wie social Media und den Verkehr zu analysieren.

  • Aufbewahrung und/oder Zugang zu deiner Geräte Informationen.

    Cookies, Geräte Bezeichnung oder andere Informationen, können aufbewahrt oder Zugang zu deinem Gerät erhalten, für den Grund, der oben angegeben wird.

  • Personalisierte Werbung und Inhalte, Messungen, Einblick in das Publikum und Produkt Entwicklung.

    Werbungen und Inhalte können personalisiert werden, basierend auf ein Profil. Mehr Daten können besser personalisierte Werbungen und Inhalte hinzufügen. Werbung und Inhalte können gezeigt und gemessen werden. Einblicke über das Publikum, welche die Werbung gesehen haben und den Inhalt, können abgeleitet werden. So wie Daten können genutzt werden, um es zu verbessern oder die Benutzer Erfahrung zu verbessern das System und die Software.

Wenn du “Ich stimme zu” klickst, erlaubst du uns, die Cookies zu benutzen die Geräte Bezeichnung, den Web oder ähnliche Technologien zu benutzen. Deine Settings, können in deinem Gerät bei deinem Browser geändert werden.

Für den bestimmten Zweck, berechtigten Interessen beruhen darauf, mehr als auf den Inhalt. Du kannst mehr darüber in unseren Privaten und Cookie Politik lesen.